Year,Month,Day,Hour,Minute,Value (Times are PST for temperature in C)
2015,05,19,15,42,21.70
2015,05,19,15,43,21.70
2015,05,19,15,44,21.80
2015,05,19,15,45,21.90
2015,05,19,15,46,22.00
2015,05,19,15,47,22.10
2015,05,19,15,48,22.10
2015,05,19,15,49,22.10
2015,05,19,15,50,22.10
2015,05,19,15,51,22.10
2015,05,19,15,52,22.10
2015,05,19,15,53,22.10
2015,05,19,15,54,22.10
2015,05,19,15,55,22.10
2015,05,19,15,56,22.10
2015,05,19,15,57,22.20
2015,05,19,15,58,22.30
2015,05,19,15,59,22.40
2015,05,19,16,00,22.30
2015,05,19,16,01,22.20
2015,05,19,16,02,22.10
2015,05,19,16,03,22.20
2015,05,19,16,04,22.20
2015,05,19,16,05,22.20
2015,05,19,16,06,22.30
2015,05,19,16,07,22.30
2015,05,19,16,08,22.30
2015,05,19,16,09,22.30
2015,05,19,16,10,22.20
2015,05,19,16,11,22.20
2015,05,19,16,12,22.20
2015,05,19,16,13,22.10
2015,05,19,16,14,22.10
2015,05,19,16,15,22.10
2015,05,19,16,16,22.20
2015,05,19,16,17,22.30
2015,05,19,16,18,22.40
2015,05,19,16,19,22.50
2015,05,19,16,20,22.60
2015,05,19,16,21,22.80
2015,05,19,16,22,22.90
2015,05,19,16,23,22.90
2015,05,19,16,24,22.90
2015,05,19,16,25,22.90
2015,05,19,16,26,22.90
2015,05,19,16,27,22.90
2015,05,19,16,28,22.90
2015,05,19,16,29,22.80
2015,05,19,16,30,22.70
2015,05,19,16,31,22.80
2015,05,19,16,32,22.80
2015,05,19,16,33,22.80
2015,05,19,16,34,22.90
2015,05,19,16,35,23.10
2015,05,19,16,36,23.20
2015,05,19,16,37,23.20
2015,05,19,16,38,23.30
2015,05,19,16,39,23.30
2015,05,19,16,40,23.30
2015,05,19,16,41,23.30
2015,05,19,16,42,23.30
2015,05,19,16,43,23.20
2015,05,19,16,44,23.10
2015,05,19,16,45,23.10
2015,05,19,16,46,23.00
2015,05,19,16,47,22.90
2015,05,19,16,48,22.90
2015,05,19,16,49,22.90
2015,05,19,16,50,22.80
2015,05,19,16,51,22.80
2015,05,19,16,52,22.80
2015,05,19,16,53,22.80
2015,05,19,16,54,22.80
2015,05,19,16,55,22.80
2015,05,19,16,56,22.80
2015,05,19,16,57,22.80
2015,05,19,16,58,22.90
2015,05,19,16,59,22.90
2015,05,19,17,00,22.90
2015,05,19,17,01,22.90
2015,05,19,17,02,22.90
2015,05,19,17,03,22.90
2015,05,19,17,04,22.90
2015,05,19,17,05,22.90
2015,05,19,17,06,22.80
2015,05,19,17,07,22.80
2015,05,19,17,08,22.70
2015,05,19,17,09,22.70
2015,05,19,17,10,22.60
2015,05,19,17,11,22.60
2015,05,19,17,12,22.50
2015,05,19,17,13,22.50
2015,05,19,17,14,22.40
2015,05,19,17,15,22.40
2015,05,19,17,16,22.40
2015,05,19,17,17,22.40
2015,05,19,17,18,22.30
2015,05,19,17,19,22.30
2015,05,19,17,20,22.30
2015,05,19,17,21,22.20
2015,05,19,17,22,22.10
2015,05,19,17,23,22.00
2015,05,19,17,24,22.00
2015,05,19,17,25,22.00
2015,05,19,17,26,22.00
2015,05,19,17,27,22.00
2015,05,19,17,28,21.90
2015,05,19,17,29,21.90
2015,05,19,17,30,21.90
2015,05,19,17,31,21.90
2015,05,19,17,32,21.80
2015,05,19,17,33,21.80
2015,05,19,17,34,21.70
2015,05,19,17,35,21.60
2015,05,19,17,36,21.50
2015,05,19,17,37,21.40
2015,05,19,17,38,21.30
2015,05,19,17,39,21.30
2015,05,19,17,40,21.20
2015,05,19,17,41,21.10
2015,05,19,17,42,21.00
2015,05,19,17,43,21.00
2015,05,19,17,44,20.90
2015,05,19,17,45,20.90
2015,05,19,17,46,20.80
2015,05,19,17,47,20.70
2015,05,19,17,48,20.70
2015,05,19,17,49,20.60
2015,05,19,17,50,20.60
2015,05,19,17,51,20.60
2015,05,19,17,52,20.50
2015,05,19,17,53,20.40
2015,05,19,17,54,20.40
2015,05,19,17,55,20.30
2015,05,19,17,56,20.30
2015,05,19,17,57,20.20
2015,05,19,17,58,20.20
2015,05,19,17,59,20.20
2015,05,19,18,00,20.10
2015,05,19,18,01,20.00
2015,05,19,18,02,19.90
2015,05,19,18,03,19.90
2015,05,19,18,04,19.90
2015,05,19,18,05,19.80
2015,05,19,18,06,19.70
2015,05,19,18,07,19.60
2015,05,19,18,08,19.50
2015,05,19,18,09,19.40
2015,05,19,18,10,19.20
2015,05,19,18,11,19.20
2015,05,19,18,12,19.20
2015,05,19,18,13,19.10
2015,05,19,18,14,19.10
2015,05,19,18,15,19.10
2015,05,19,18,16,19.10
2015,05,19,18,17,19.10
2015,05,19,18,18,19.10
2015,05,19,18,19,19.10
2015,05,19,18,20,19.10
2015,05,19,18,21,19.10
2015,05,19,18,22,19.00
2015,05,19,18,23,18.90
2015,05,19,18,24,18.80
2015,05,19,18,25,18.70
2015,05,19,18,26,18.70
2015,05,19,18,27,18.60
2015,05,19,18,28,18.50
2015,05,19,18,29,18.50
2015,05,19,18,30,18.50
2015,05,19,18,31,18.50
2015,05,19,18,32,18.50
2015,05,19,18,33,18.50
2015,05,19,18,34,18.50
2015,05,19,18,35,18.50
2015,05,19,18,36,18.50
2015,05,19,18,37,18.50
2015,05,19,18,38,18.50
2015,05,19,18,39,18.50
2015,05,19,18,40,18.40
2015,05,19,18,41,18.30
2015,05,19,18,42,18.20
2015,05,19,18,43,18.20
2015,05,19,18,44,18.20
2015,05,19,18,45,18.10
2015,05,19,18,46,18.10
2015,05,19,18,47,18.10
2015,05,19,18,48,18.10
2015,05,19,18,49,18.20
2015,05,19,18,50,18.20
2015,05,19,18,51,18.20
2015,05,19,18,52,18.10
2015,05,19,18,53,18.10
2015,05,19,18,54,18.10
2015,05,19,18,55,17.90
2015,05,19,18,56,17.90
2015,05,19,18,57,17.80
2015,05,19,18,58,17.80
2015,05,19,18,59,17.70
2015,05,19,19,00,17.70
2015,05,19,19,01,17.70
2015,05,19,19,02,17.70
2015,05,19,19,03,17.60
2015,05,19,19,04,17.60
2015,05,19,19,05,17.60
2015,05,19,19,06,17.60
2015,05,19,19,07,17.60
2015,05,19,19,08,17.60
2015,05,19,19,09,17.60
2015,05,19,19,10,17.60
2015,05,19,19,11,17.60
2015,05,19,19,12,17.60
2015,05,19,19,13,17.50
2015,05,19,19,14,17.50
2015,05,19,19,15,17.50
2015,05,19,19,16,17.50
2015,05,19,19,17,17.50
2015,05,19,19,18,17.50
2015,05,19,19,19,17.50
2015,05,19,19,20,17.40
2015,05,19,19,21,17.40
2015,05,19,19,22,17.30
2015,05,19,19,23,17.30
2015,05,19,19,24,17.10
2015,05,19,19,25,17.00
2015,05,19,19,26,16.90
2015,05,19,19,27,16.90
2015,05,19,19,28,16.80
2015,05,19,19,29,16.70
2015,05,19,19,30,16.70
2015,05,19,19,31,16.70
2015,05,19,19,32,16.60
2015,05,19,19,33,16.60
2015,05,19,19,34,16.50
2015,05,19,19,35,16.40
2015,05,19,19,36,16.40
2015,05,19,19,37,16.40
2015,05,19,19,38,16.40
2015,05,19,19,39,16.40
2015,05,19,19,40,16.40
2015,05,19,19,41,16.30
2015,05,19,19,42,16.30
2015,05,19,19,43,16.30
2015,05,19,19,44,16.30
2015,05,19,19,45,16.30
2015,05,19,19,46,16.30
2015,05,19,19,47,16.20
2015,05,19,19,48,16.20
2015,05,19,19,49,16.20
2015,05,19,19,50,16.10
2015,05,19,19,51,16.10
2015,05,19,19,52,16.10
2015,05,19,19,53,16.10
2015,05,19,19,54,16.00
2015,05,19,19,55,15.90
2015,05,19,19,56,15.90
2015,05,19,19,57,15.90
2015,05,19,19,58,15.80
2015,05,19,19,59,15.80
2015,05,19,20,00,15.80
2015,05,19,20,01,15.70
2015,05,19,20,02,15.70
2015,05,19,20,03,15.60
2015,05,19,20,04,15.50
2015,05,19,20,05,15.50
2015,05,19,20,06,15.40
2015,05,19,20,07,15.40
2015,05,19,20,08,15.30
2015,05,19,20,09,15.30
2015,05,19,20,10,15.30
2015,05,19,20,11,15.30
2015,05,19,20,12,15.30
2015,05,19,20,13,15.20
2015,05,19,20,14,15.20
2015,05,19,20,15,15.20
2015,05,19,20,16,15.10
2015,05,19,20,17,15.10
2015,05,19,20,18,15.00
2015,05,19,20,19,14.90
2015,05,19,20,20,14.90
2015,05,19,20,21,14.80
2015,05,19,20,22,14.80
2015,05,19,20,23,14.70
2015,05,19,20,24,14.70
2015,05,19,20,25,14.60
2015,05,19,20,26,14.50
2015,05,19,20,27,14.40
2015,05,19,20,28,14.30
2015,05,19,20,29,14.20
2015,05,19,20,30,14.20
2015,05,19,20,31,14.00
2015,05,19,20,32,14.00
2015,05,19,20,33,13.90
2015,05,19,20,34,13.80
2015,05,19,20,35,13.70
2015,05,19,20,36,13.70
2015,05,19,20,37,13.60
2015,05,19,20,38,13.50
2015,05,19,20,39,13.50
2015,05,19,20,40,13.40
2015,05,19,20,41,13.30
2015,05,19,20,42,13.20
2015,05,19,20,43,13.20
2015,05,19,20,44,13.10
2015,05,19,20,45,13.10
2015,05,19,20,46,13.00
2015,05,19,20,47,12.90
2015,05,19,20,48,12.80
2015,05,19,20,49,12.80
2015,05,19,20,50,12.80
2015,05,19,20,51,12.70
2015,05,19,20,52,12.70
2015,05,19,20,53,12.60
2015,05,19,20,54,12.60
2015,05,19,20,55,12.50
2015,05,19,20,56,12.50
2015,05,19,20,57,12.50
2015,05,19,20,58,12.40
2015,05,19,20,59,12.40
2015,05,19,21,00,12.30
2015,05,19,21,01,12.30
2015,05,19,21,02,12.30
2015,05,19,21,03,12.30
2015,05,19,21,04,12.20
2015,05,19,21,05,12.20
2015,05,19,21,06,12.20
2015,05,19,21,07,12.10
2015,05,19,21,08,12.10
2015,05,19,21,09,12.10
2015,05,19,21,10,12.00
2015,05,19,21,11,12.00
2015,05,19,21,12,12.00
2015,05,19,21,13,12.00
2015,05,19,21,14,12.00
2015,05,19,21,15,11.90
2015,05,19,21,16,11.90
2015,05,19,21,17,11.90
2015,05,19,21,18,11.90
2015,05,19,21,19,11.90
2015,05,19,21,20,11.90
2015,05,19,21,21,11.90
2015,05,19,21,22,11.80
2015,05,19,21,23,11.80
2015,05,19,21,24,11.80
2015,05,19,21,25,11.80
2015,05,19,21,26,11.80
2015,05,19,21,27,11.80
2015,05,19,21,28,11.80
2015,05,19,21,29,11.80
2015,05,19,21,30,11.80
2015,05,19,21,31,11.80
2015,05,19,21,32,11.80
2015,05,19,21,33,11.80
2015,05,19,21,34,11.80
2015,05,19,21,35,11.80
2015,05,19,21,36,11.80
2015,05,19,21,37,11.70
2015,05,19,21,38,11.70
2015,05,19,21,39,11.70
2015,05,19,21,40,11.70
2015,05,19,21,41,11.70
2015,05,19,21,42,11.70
2015,05,19,21,43,11.70
2015,05,19,21,44,11.60
2015,05,19,21,45,11.60
2015,05,19,21,46,11.60
2015,05,19,21,47,11.60
2015,05,19,21,48,11.60
2015,05,19,21,49,11.60
2015,05,19,21,50,11.60
2015,05,19,21,51,11.60
2015,05,19,21,52,11.60
2015,05,19,21,53,11.60
2015,05,19,21,54,11.60
2015,05,19,21,55,11.60
2015,05,19,21,56,11.60
2015,05,19,21,57,11.60
2015,05,19,21,58,11.60
2015,05,19,21,59,11.60
2015,05,19,22,00,11.60
2015,05,19,22,01,11.60
2015,05,19,22,02,11.70
2015,05,19,22,03,11.60
2015,05,19,22,04,11.60
2015,05,19,22,05,11.60
2015,05,19,22,06,11.60
2015,05,19,22,07,11.60
2015,05,19,22,08,11.60
2015,05,19,22,09,11.60
2015,05,19,22,10,11.60
2015,05,19,22,11,11.60
2015,05,19,22,12,11.60
2015,05,19,22,13,11.60
2015,05,19,22,14,11.60
2015,05,19,22,15,11.60
2015,05,19,22,16,11.60
2015,05,19,22,17,11.60
2015,05,19,22,18,11.60
2015,05,19,22,19,11.60
2015,05,19,22,20,11.60
2015,05,19,22,21,11.60
2015,05,19,22,22,11.60
2015,05,19,22,23,11.60
2015,05,19,22,24,11.60
2015,05,19,22,25,11.60
2015,05,19,22,26,11.60
2015,05,19,22,27,11.60
2015,05,19,22,28,11.60
2015,05,19,22,29,11.60
2015,05,19,22,30,11.60
2015,05,19,22,31,11.60
2015,05,19,22,32,11.60
2015,05,19,22,33,11.50
2015,05,19,22,34,11.40
2015,05,19,22,35,11.40
2015,05,19,22,36,11.40
2015,05,19,22,37,11.40
2015,05,19,22,38,11.40
2015,05,19,22,39,11.40
2015,05,19,22,40,11.40
2015,05,19,22,41,11.40
2015,05,19,22,42,11.40
2015,05,19,22,43,11.40
2015,05,19,22,44,11.40
2015,05,19,22,45,11.40
2015,05,19,22,46,11.40
2015,05,19,22,47,11.40
2015,05,19,22,48,11.40
2015,05,19,22,49,11.40
2015,05,19,22,50,11.40
2015,05,19,22,51,11.40
2015,05,19,22,52,11.40
2015,05,19,22,53,11.40
2015,05,19,22,54,11.40
2015,05,19,22,55,11.40
2015,05,19,22,56,11.30
2015,05,19,22,57,11.30
2015,05,19,22,58,11.30
2015,05,19,22,59,11.30
2015,05,19,23,00,11.30
2015,05,19,23,01,11.30
2015,05,19,23,02,11.30
2015,05,19,23,03,11.30
2015,05,19,23,04,11.30
2015,05,19,23,05,11.30
2015,05,19,23,06,11.20
2015,05,19,23,07,11.20
2015,05,19,23,08,11.20
2015,05,19,23,09,11.20
2015,05,19,23,10,11.20
2015,05,19,23,11,11.20
2015,05,19,23,12,11.20
2015,05,19,23,13,11.20
2015,05,19,23,14,11.20
2015,05,19,23,15,11.20
2015,05,19,23,16,11.20
2015,05,19,23,17,11.20
2015,05,19,23,18,11.20
2015,05,19,23,19,11.20
2015,05,19,23,20,11.20
2015,05,19,23,21,11.20
2015,05,19,23,22,11.20
2015,05,19,23,23,11.20
2015,05,19,23,24,11.20
2015,05,19,23,25,11.20
2015,05,19,23,26,11.20
2015,05,19,23,27,11.20
2015,05,19,23,28,11.10
2015,05,19,23,29,11.10
2015,05,19,23,30,11.10
2015,05,19,23,31,11.10
2015,05,19,23,32,11.10
2015,05,19,23,33,11.10
2015,05,19,23,34,11.10
2015,05,19,23,35,11.10
2015,05,19,23,36,11.10
2015,05,19,23,37,11.10
2015,05,19,23,38,11.10
2015,05,19,23,39,11.10
2015,05,19,23,40,11.00
2015,05,19,23,41,10.90
2015,05,19,23,42,10.90
2015,05,19,23,43,10.90
2015,05,19,23,44,10.90
2015,05,19,23,45,10.90
2015,05,19,23,46,10.90
2015,05,19,23,47,10.90
2015,05,19,23,48,10.90
2015,05,19,23,49,10.90
2015,05,19,23,50,10.90
2015,05,19,23,51,10.90
2015,05,19,23,52,10.90
2015,05,19,23,53,10.90
2015,05,19,23,54,10.90
2015,05,19,23,55,10.90
2015,05,19,23,56,10.90
2015,05,19,23,57,10.90
2015,05,19,23,58,10.90
2015,05,19,23,59,10.90
